21:08
Airports
History
Links
Donate
Help keep this website running!
PayPal
Bitcoin
This page is community maintained. The information is intended for PC simulator navigation or reference.
Always use approved charts for navigation.
CYUB
TUKTOYAKTUK
TUKTOYAKTUK (CYUB)
Tuktoyaktuk, Northwest Territories, Canada
4
Lat/Lng:69° 26' 0" N / 133° 1' 35.01" W
69.433334 / -133.026391
Elevation:15'ft / 5mMSL
ID / ICAO:CYUB
Runways:1
Longest:(09-27) 1,528.9m / 5,016ft Gravel
Distance To
Airport ID:
Airport Radio Frequencies
MANDATORY FREQ: 122.1
Nearby VORs <50NM
Nearby NDBs
METARUpdated 08-20-17 21:00 GMT
Altimeter: 29.98
Visibility: 15.0 statute miles
Wind: 5 knots (030°)
Temp: 10°c 50°f
Humidity: 76.2%

METAR: CYUB 202100Z 03005KT 010V100 15SM BKN022 10/06 A2998 RMK SC7 SLP152

(Powered by phpweather)
Runway 09 / 27
Dimensions:1528.9 x 45.7m 5016' x 150'ft
Surface:Gravel
Edge Lights:Medium intensity
Runway 09 [A]Runway 27 [B]
Heading:124°TH 304°TH
Lat:
Lng:
69° 26' 14.01"N
133° 2' 33"W
69° 25' 45.99"N
133° 0' 37.01"W
TDZ:Yes, lighted
User Notes and Comments
Google Map
Nearby Airports
(U) INUVIK MIKE ZUBKO 78.9 NM
CYEV (WX) S 188°
4 Aklavik 97.0 NM
CYKD SSW 210°
4 FORT MCPHERSON 147.5 NM
CZFM (WX) SSW 198°
(C) Midway 162.2 NM
CBA4 SSW 200°
4 Old Crow 215.1 NM
CYOC (WX) SW 233°
4 PAULATUK 217.9 NM
CYPC E 91°
4 Eagle Plains 223.2 NM
AJ2 SSW 204°
VFR Chart
Flight Planning at SkyVector.com